QPF
0.00 0.00 0.00 0.01 0.01 0.01 0.01 0.00 0.00 0.00 0.01 0.01 0.00 0.00 0.00 0.01 0.00 0.00 0.00 0.00 0.00 0.00 0.00 0.00 0.00 0.00 0.00 0.00 0.00 0.00 0.00 0.00 0.00 0.00 0.00 0.00 0.00 0.00 0.00 0.01 0.01 0.03 0.04 0.07
0.00 0.00 0.00 0.00 0.00 0.00 0.00 0.00 0.00 0.00 0.00 0.00 0.00 0.00 0.00 0.01 0.01 0.00 0.00 0.00 0.00 0.00 0.00 0.00 0.00 0.00 0.00 0.01 0.01 0.00 0.00 0.00 0.00 0.00 0.00 0.00 0.00 0.00 0.00 0.01 0.01 0.02 0.03 0.04
0.01 0.00 0.00 0.00 0.00 0.00 0.00 0.00 0.00 0.00 0.00 0.00 0.00 0.00 0.01 0.01 0.01 0.00 0.00 0.00 0.00 0.00 0.00 0.00 0.00 0.00 0.01 0.01 0.00 0.00 0.00 0.00 0.00 0.00 0.00 0.00 0.00 0.00 0.00 0.00 0.01 0.01 0.03 0.04
0.01 0.00 0.00 0.00 0.00 0.00 0.00 0.00 0.00 0.00 0.00 0.00 0.00 0.01 0.02 0.02 0.01 0.00 0.00 0.00 0.00 0.00 0.00 0.00 0.00 0.00 0.01 0.00 0.00 0.00 0.00 0.00 0.00 0.00 0.00 0.00 0.01 0.01 0.01 0.01 0.01 0.02 0.03 0.05
0.00 0.00 0.00 0.00 0.00 0.00 0.00 0.00 0.00 0.00 0.00 0.00 0.00 0.01 0.02 0.01 0.00 0.00 0.00 0.00 0.00 0.00 0.00 0.00 0.00 0.00 0.00 0.00 0.00 0.00 0.00 0.00 0.00 0.00 0.00 0.01 0.02 0.02 0.02 0.01 0.02 0.04 0.09 0.09
0.00 0.00 0.00 0.00 0.00 0.00 0.00 0.00 0.00 0.00 0.00 0.00 0.00 0.00 0.01 0.00 0.00 0.00 0.00 0.00 0.00 0.00 0.00 0.00 0.00 0.00 0.00 0.00 0.00 0.00 0.00 0.00 0.00 0.00 0.00 0.01 0.02 0.02 0.03 0.02 0.03 0.05 0.09 0.10
0.00 0.00 0.00 0.00 0.00 0.00 0.00 0.00 0.00 0.00 0.00 0.00 0.00 0.00 0.00 0.00 0.00 0.00 0.00 0.00 0.00 0.00 0.00 0.00 0.00 0.00 0.00 0.00 0.00 0.00 0.00 0.00 0.00 0.00 0.00 0.01 0.03 0.03 0.04 0.04 0.04 0.04 0.05 0.08
0.00 0.00 0.00 0.00 0.00 0.00 0.00 0.00 0.00 0.00 0.00 0.00 0.00 0.00 0.00 0.00 0.00 0.00 0.00 0.00 0.00 0.00 0.00 0.00 0.00 0.00 0.00 0.00 0.00 0.00 0.00 0.00 0.00 0.00 0.01 0.01 0.03 0.04 0.05 0.06 0.07 0.06 0.06 0.08
0.00 0.00 0.00 0.00 0.00 0.00 0.00 0.00 0.00 0.00 0.00 0.00 0.00 0.00 0.00 0.00 0.00 0.00 0.00 0.00 0.00 0.00 0.00 0.00 0.00 0.00 0.00 0.00 0.00 0.00 0.00 0.00 0.01 0.01 0.01 0.02 0.02 0.03 0.04 0.04 0.06 0.07 0.08 0.08
0.00 0.00 0.00 0.00 0.00 0.00 0.00 0.00 0.00 0.00 0.00 0.00 0.00 0.00 0.00 0.00 0.00 0.00 0.00 0.00 0.00 0.00 0.00 0.00 0.00 0.00 0.00 0.00 0.00 0.00 0.00 0.01 0.01 0.01 0.01 0.02 0.02 0.02 0.03 0.03 0.04 0.05 0.07 0.08
0.00 0.00 0.00 0.00 0.00 0.00 0.00 0.00 0.00 0.00 0.00 0.00 0.00 0.00 0.00 0.00 0.00 0.00 0.00 0.00 0.00 0.00 0.00 0.00 0.00 0.00 0.00 0.00 0.00 0.00 0.00 0.00 0.01 0.01 0.01 0.02 0.03 0.05 0.06 0.05 0.07 0.06 0.06 0.06
0.00 0.00 0.00 0.00 0.00 0.00 0.00 0.00 0.00 0.00 0.00 0.00 0.00 0.00 0.00 0.00 0.00 0.00 0.00 0.00 0.00 0.00 0.00 0.00 0.00 0.00 0.00 0.00 0.00 0.00 0.00 0.00 0.00 0.01 0.01 0.02 0.03 0.04 0.05 0.06 0.08 0.08 0.07 0.06
0.00 0.00 0.00 0.00 0.00 0.00 0.00 0.00 0.00 0.00 0.00 0.00 0.00 0.00 0.00 0.00 0.00 0.00 0.00 0.00 0.00 0.00 0.00 0.00 0.00 0.00 0.00 0.00 0.00 0.00 0.00 0.00 0.00 0.00 0.01 0.01 0.01 0.02 0.03 0.04 0.04 0.05 0.05 0.06
0.00 0.00 0.00 0.00 0.00 0.00 0.00 0.00 0.00 0.00 0.00 0.00 0.00 0.00 0.00 0.00 0.00 0.00 0.00 0.00 0.00 0.00 0.00 0.00 0.00 0.00 0.00 0.00 0.00 0.00 0.00 0.00 0.00 0.00 0.00 0.00 0.01 0.02 0.02 0.03 0.05 0.04 0.04 0.06
0.00 0.00 0.00 0.00 0.00 0.00 0.00 0.00 0.00 0.00 0.00 0.00 0.00 0.00 0.00 0.00 0.00 0.00 0.00 0.00 0.00 0.00 0.00 0.00 0.00 0.00 0.00 0.00 0.00 0.00 0.00 0.00 0.00 0.00 0.00 0.00 0.01 0.02 0.01 0.01 0.03 0.04 0.04 0.04
0.00 0.00 0.00 0.00 0.00 0.00 0.00 0.00 0.00 0.00 0.00 0.00 0.00 0.00 0.00 0.00 0.00 0.00 0.00 0.00 0.00 0.00 0.00 0.00 0.00 0.00 0.00 0.00 0.00 0.00 0.00 0.00 0.00 0.00 0.00 0.00 0.00 0.02 0.02 0.01 0.01 0.02 0.03 0.03
0.00 0.00 0.00 0.00 0.00 0.00 0.00 0.00 0.00 0.00 0.00 0.00 0.00 0.00 0.00 0.00 0.00 0.00 0.00 0.00 0.00 0.00 0.00 0.00 0.00 0.00 0.00 0.00 0.00 0.00 0.00 0.00 0.00 0.00 0.00 0.00 0.01 0.02 0.02 0.01 0.02 0.02 0.02 0.02
0.00 0.00 0.00 0.00 0.00 0.00 0.00 0.00 0.00 0.00 0.00 0.00 0.00 0.00 0.00 0.00 0.00 0.00 0.00 0.00 0.00 0.00 0.00 0.00 0.00 0.00 0.00 0.00 0.00 0.00 0.00 0.00 0.00 0.00 0.00 0.01 0.01 0.01 0.02 0.01 0.01 0.01 0.01 0.01
0.00 0.00 0.00 0.00 0.00 0.00 0.00 0.00 0.00 0.00 0.00 0.00 0.00 0.00 0.00 0.00 0.00 0.00 0.00 0.00 0.00 0.00 0.00 0.00 0.00 0.00 0.00 0.00 0.00 0.00 0.00 0.00 0.00 0.00 0.01 0.01 0.01 0.01 0.01 0.00 0.00 0.00 0.00 0.01
0.00 0.00 0.00 0.00 0.00 0.00 0.00 0.00 0.00 0.00 0.00 0.00 0.00 0.00 0.00 0.00 0.00 0.00 0.00 0.00 0.00 0.00 0.00 0.00 0.00 0.00 0.00 0.00 0.00 0.00 0.00 0.00 0.00 0.01 0.01 0.01 0.00 0.00 0.00 0.00 0.00 0.00 0.01 0.01
0.00 0.00 0.00 0.00 0.00 0.00 0.00 0.00 0.00 0.00 0.00 0.00 0.00 0.00 0.00 0.00 0.00 0.00 0.00 0.00 0.00 0.00 0.00 0.00 0.00 0.00 0.00 0.00 0.00 0.00 0.00 0.00 0.00 0.00 0.01 0.00 0.00 0.00 0.00 0.00 0.00 0.00 0.01 0.01
0.00 0.00 0.00 0.00 0.00 0.00 0.00 0.00 0.00 0.00 0.00 0.00 0.00 0.00 0.00 0.00 0.00 0.00 0.00 0.00 0.00 0.00 0.00 0.00 0.00 0.00 0.00 0.00 0.00 0.00 0.00 0.00 0.00 0.00 0.00 0.00 0.00 0.00 0.00 0.00 0.00 0.00 0.01 0.01
0.00 0.00 0.00 0.00 0.00 0.00 0.00 0.00 0.00 0.00 0.00 0.00 0.00 0.00 0.00 0.00 0.00 0.00 0.00 0.00 0.00 0.00 0.00 0.00 0.00 0.00 0.00 0.00 0.00 0.00 0.00 0.00 0.00 0.00 0.00 0.00 0.00 0.00 0.00 0.00 0.00 0.00 0.00 0.00
0.00 0.00 0.00 0.00 0.00 0.00 0.00 0.00 0.00 0.00 0.00 0.00 0.00 0.00 0.00 0.00 0.00 0.00 0.00 0.00 0.00 0.00 0.00 0.00 0.00 0.00 0.00 0.00 0.00 0.00 0.00 0.00 0.00 0.00 0.00 0.00 0.00 0.00 0.00 0.00 0.00 0.00 0.00 0.00
0.00 0.00 0.00 0.00 0.00 0.00 0.00 0.00 0.00 0.00 0.00 0.00 0.00 0.00 0.00 0.00 0.00 0.00 0.00 0.00 0.00 0.00 0.00 0.00 0.00 0.00 0.00 0.00 0.00 0.00 0.00 0.00 0.00 0.00 0.00 0.00 0.00 0.00 0.00 0.00 0.00 0.00 0.00 0.00
0.00 0.00 0.00 0.00 0.00 0.00 0.00 0.00 0.00 0.00 0.00 0.00 0.00 0.00 0.00 0.00 0.00 0.00 0.00 0.00 0.00 0.00 0.00 0.00 0.00 0.00 0.00 0.00 0.00 0.00 0.00 0.00 0.00 0.00 0.00 0.00 0.00 0.00 0.00 0.00 0.00 0.00 0.00 0.00
MSLP
1015.44 1016.41 1017.25 1017.94 1018.52 1019.03 1019.53 1020.06 1020.63 1021.22 1021.79 1022.29 1022.66 1022.87 1022.91 1022.77 1022.50 1022.14 1021.74 1021.33 1020.95 1020.59 1020.26 1019.94 1019.60 1019.24 1018.86 1018.46 1018.05 1017.64 1017.26 1016.90 1016.57 1016.26 1015.95 1015.63 1015.30 1014.94 1014.56 1014.18 1013.80 1013.43 1013.10 1012.82
1016.40 1017.28 1017.98 1018.53 1018.97 1019.37 1019.80 1020.29 1020.87 1021.49 1022.09 1022.63 1023.02 1023.23 1023.23 1023.05 1022.72 1022.30 1021.85 1021.41 1021.01 1020.65 1020.33 1020.01 1019.68 1019.32 1018.93 1018.50 1018.06 1017.63 1017.23 1016.87 1016.56 1016.27 1015.99 1015.70 1015.39 1015.05 1014.66 1014.25 1013.83 1013.42 1013.04 1012.71
1017.12 1017.88 1018.45 1018.87 1019.21 1019.55 1019.96 1020.46 1021.07 1021.73 1022.37 1022.93 1023.31 1023.48 1023.43 1023.17 1022.76 1022.28 1021.77 1021.30 1020.89 1020.55 1020.25 1019.97 1019.67 1019.32 1018.93 1018.49 1018.04 1017.60 1017.20 1016.85 1016.54 1016.28 1016.04 1015.79 1015.51 1015.17 1014.78 1014.35 1013.89 1013.43 1012.99 1012.59
1017.59 1018.22 1018.68 1019.01 1019.30 1019.63 1020.06 1020.62 1021.29 1022.01 1022.69 1023.24 1023.59 1023.70 1023.56 1023.20 1022.69 1022.12 1021.56 1021.06 1020.65 1020.33 1020.07 1019.83 1019.57 1019.25 1018.88 1018.45 1018.00 1017.56 1017.15 1016.81 1016.52 1016.29 1016.08 1015.86 1015.60 1015.28 1014.89 1014.44 1013.94 1013.42 1012.91 1012.44
1017.88 1018.39 1018.75 1019.03 1019.31 1019.68 1020.19 1020.84 1021.59 1022.37 1023.09 1023.63 1023.93 1023.94 1023.69 1023.21 1022.58 1021.92 1021.28 1020.75 1020.34 1020.04 1019.82 1019.63 1019.42 1019.15 1018.80 1018.39 1017.94 1017.50 1017.09 1016.75 1016.48 1016.26 1016.07 1015.88 1015.65 1015.34 1014.95 1014.47 1013.93 1013.36 1012.78 1012.22
1018.11 1018.50 1018.78 1019.03 1019.35 1019.79 1020.40 1021.16 1022.01 1022.86 1023.59 1024.11 1024.33 1024.25 1023.86 1023.25 1022.50 1021.73 1021.03 1020.45 1020.04 1019.76 1019.58 1019.43 1019.27 1019.03 1018.72 1018.32 1017.88 1017.43 1017.02 1016.67 1016.40 1016.19 1016.01 1015.84 1015.62 1015.32 1014.93 1014.44 1013.87 1013.25 1012.61 1011.97
1018.36 1018.63 1018.85 1019.10 1019.47 1020.00 1020.72 1021.59 1022.53 1023.43 1024.17 1024.65 1024.79 1024.59 1024.08 1023.33 1022.47 1021.60 1020.83 1020.22 1019.80 1019.53 1019.38 1019.27 1019.13 1018.93 1018.64 1018.25 1017.81 1017.36 1016.93 1016.57 1016.29 1016.08 1015.91 1015.73 1015.52 1015.23 1014.84 1014.35 1013.76 1013.10 1012.42 1011.73
1018.66 1018.84 1019.02 1019.28 1019.69 1020.31 1021.12 1022.08 1023.08 1024.01 1024.73 1025.15 1025.21 1024.90 1024.28 1023.43 1022.47 1021.53 1020.71 1020.07 1019.63 1019.37 1019.23 1019.14 1019.03 1018.85 1018.56 1018.19 1017.74 1017.28 1016.85 1016.47 1016.17 1015.95 1015.77 1015.60 1015.39 1015.11 1014.73 1014.24 1013.65 1012.98 1012.26 1011.54
1019.00 1019.11 1019.25 1019.53 1019.99 1020.66 1021.53 1022.53 1023.55 1024.46 1025.14 1025.49 1025.48 1025.09 1024.38 1023.46 1022.46 1021.48 1020.64 1019.99 1019.54 1019.28 1019.14 1019.06 1018.95 1018.77 1018.49 1018.12 1017.68 1017.21 1016.77 1016.38 1016.07 1015.84 1015.65 1015.47 1015.27 1015.00 1014.63 1014.15 1013.57 1012.92 1012.20 1011.46
1019.29 1019.36 1019.50 1019.78 1020.27 1020.97 1021.85 1022.84 1023.82 1024.67 1025.28 1025.56 1025.48 1025.03 1024.29 1023.36 1022.35 1021.39 1020.56 1019.93 1019.49 1019.23 1019.09 1019.00 1018.88 1018.70 1018.42 1018.05 1017.61 1017.15 1016.71 1016.33 1016.02 1015.78 1015.58 1015.41 1015.21 1014.95 1014.59 1014.14 1013.59 1012.95 1012.26 1011.53
1019.44 1019.52 1019.67 1019.97 1020.46 1021.14 1021.98 1022.90 1023.80 1024.55 1025.06 1025.26 1025.12 1024.66 1023.94 1023.05 1022.10 1021.21 1020.44 1019.85 1019.44 1019.19 1019.04 1018.93 1018.81 1018.61 1018.33 1017.97 1017.56 1017.12 1016.71 1016.35 1016.05 1015.81 1015.62 1015.44 1015.24 1014.99 1014.65 1014.22 1013.70 1013.09 1012.43 1011.73
1019.43 1019.54 1019.73 1020.04 1020.52 1021.15 1021.90 1022.70 1023.46 1024.08 1024.48 1024.60 1024.42 1023.98 1023.32 1022.52 1021.69 1020.91 1020.25 1019.73 1019.37 1019.13 1018.98 1018.86 1018.71 1018.51 1018.24 1017.91 1017.53 1017.14 1016.77 1016.44 1016.17 1015.94 1015.76 1015.58 1015.37 1015.12 1014.79 1014.38 1013.88 1013.31 1012.68 1012.01
1019.29 1019.47 1019.70 1020.03 1020.47 1021.02 1021.64 1022.28 1022.87 1023.32 1023.59 1023.63 1023.44 1023.03 1022.47 1021.81 1021.14 1020.51 1019.98 1019.57 1019.26 1019.05 1018.90 1018.77 1018.61 1018.41 1018.15 1017.85 1017.53 1017.20 1016.89 1016.61 1016.38 1016.18 1015.99 1015.81 1015.59 1015.32 1014.98 1014.57 1014.09 1013.54 1012.94 1012.31
1019.12 1019.37 1019.65 1019.99 1020.38 1020.82 1021.29 1021.74 1022.12 1022.39 1022.52 1022.48 1022.28 1021.93 1021.49 1021.00 1020.50 1020.05 1019.67 1019.36 1019.13 1018.96 1018.81 1018.66 1018.50 1018.30 1018.07 1017.82 1017.56 1017.30 1017.06 1016.85 1016.66 1016.48 1016.29 1016.09 1015.84 1015.54 1015.18 1014.76 1014.28 1013.75 1013.18 1012.57
1019.05 1019.38 1019.70 1020.02 1020.33 1020.64 1020.93 1021.17 1021.34 1021.42 1021.40 1021.28 1021.07 1020.79 1020.48 1020.15 1019.84 1019.56 1019.33 1019.14 1018.98 1018.84 1018.70 1018.55 1018.38 1018.20 1018.00 1017.80 1017.61 1017.43 1017.27 1017.12 1016.97 1016.80 1016.61 1016.38 1016.09 1015.75 1015.36 1014.91 1014.42 1013.90 1013.35 1012.78
1019.20 1019.58 1019.91 1020.18 1020.40 1020.56 1020.64 1020.66 1020.61 1020.50 1020.33 1020.13 1019.92 1019.71 1019.51 1019.34 1019.20 1019.08 1018.99 1018.91 1018.82 1018.71 1018.58 1018.43 1018.26 1018.09 1017.93 1017.79 1017.67 1017.56 1017.47 1017.38 1017.26 1017.11 1016.90 1016.64 1016.31 1015.92 1015.48 1015.01 1014.51 1013.99 1013.46 1012.92
1019.61 1019.99 1020.29 1020.49 1020.58 1020.56 1020.44 1020.23 1019.97 1019.67 1019.38 1019.10 1018.88 1018.72 1018.63 1018.59 1018.60 1018.63 1018.66 1018.67 1018.63 1018.56 1018.44 1018.29 1018.13 1017.98 1017.86 1017.76 1017.70 1017.67 1017.64 1017.59 1017.51 1017.36 1017.15 1016.85 1016.48 1016.05 1015.58 1015.08 1014.57 1014.06 1013.56 1013.06
1020.21 1020.55 1020.77 1020.85 1020.78 1020.57 1020.25 1019.84 1019.38 1018.93 1018.52 1018.19 1017.96 1017.85 1017.84 1017.92 1018.05 1018.20 1018.33 1018.41 1018.42 1018.37 1018.27 1018.13 1017.98 1017.85 1017.75 1017.71 1017.70 1017.72 1017.74 1017.74 1017.68 1017.54 1017.32 1017.01 1016.62 1016.17 1015.68 1015.17 1014.67 1014.18 1013.71 1013.26
1020.84 1021.08 1021.17 1021.10 1020.87 1020.48 1019.97 1019.37 1018.76 1018.18 1017.69 1017.33 1017.11 1017.05 1017.12 1017.29 1017.52 1017.76 1017.97 1018.11 1018.17 1018.14 1018.05 1017.93 1017.79 1017.68 1017.62 1017.61 1017.64 1017.70 1017.76 1017.79 1017.76 1017.64 1017.43 1017.12 1016.74 1016.29 1015.82 1015.34 1014.87 1014.42 1013.99 1013.58
1021.27 1021.38 1021.32 1021.09 1020.69 1020.13 1019.46 1018.74 1018.02 1017.37 1016.84 1016.47 1016.28 1016.27 1016.42 1016.67 1016.99 1017.30 1017.57 1017.76 1017.86 1017.86 1017.80 1017.69 1017.57 1017.49 1017.45 1017.46 1017.52 1017.61 1017.70 1017.76 1017.76 1017.66 1017.48 1017.21 1016.86 1016.47 1016.04 1015.61 1015.20 1014.81 1014.43 1014.08
1021.34 1021.29 1021.08 1020.69 1020.13 1019.45 1018.67 1017.87 1017.10 1016.43 1015.91 1015.57 1015.44 1015.50 1015.72 1016.05 1016.43 1016.81 1017.13 1017.37 1017.51 1017.54 1017.51 1017.42 1017.33 1017.27 1017.25 1017.28 1017.36 1017.47 1017.58 1017.66 1017.68 1017.63 1017.49 1017.28 1017.00 1016.68 1016.34 1016.00 1015.66 1015.34 1015.03 1014.72
1020.95 1020.76 1020.40 1019.88 1019.21 1018.44 1017.61 1016.78 1016.02 1015.38 1014.92 1014.65 1014.59 1014.73 1015.01 1015.41 1015.85 1016.28 1016.65 1016.94 1017.11 1017.19 1017.19 1017.14 1017.08 1017.04 1017.03 1017.07 1017.16 1017.28 1017.40 1017.49 1017.55 1017.54 1017.46 1017.33 1017.14 1016.92 1016.69 1016.44 1016.20 1015.96 1015.71 1015.45
1020.16 1019.84 1019.36 1018.74 1018.01 1017.20 1016.37 1015.57 1014.87 1014.31 1013.93 1013.75 1013.77 1013.98 1014.33 1014.78 1015.27 1015.74 1016.15 1016.48 1016.69 1016.81 1016.86 1016.85 1016.82 1016.80 1016.81 1016.86 1016.94 1017.06 1017.17 1017.28 1017.36 1017.40 1017.39 1017.34 1017.25 1017.14 1017.02 1016.88 1016.74 1016.57 1016.39 1016.17
1019.12 1018.71 1018.16 1017.49 1016.73 1015.93 1015.14 1014.41 1013.79 1013.33 1013.04 1012.96 1013.05 1013.32 1013.72 1014.20 1014.71 1015.20 1015.64 1015.99 1016.25 1016.41 1016.50 1016.53 1016.54 1016.55 1016.58 1016.63 1016.71 1016.81 1016.92 1017.03 1017.12 1017.20 1017.24 1017.27 1017.28 1017.28 1017.26 1017.23 1017.17 1017.09 1016.96 1016.78
1018.09 1017.63 1017.04 1016.35 1015.61 1014.85 1014.13 1013.48 1012.95 1012.58 1012.38 1012.36 1012.50 1012.80 1013.20 1013.68 1014.18 1014.67 1015.11 1015.48 1015.76 1015.96 1016.10 1016.18 1016.24 1016.28 1016.32 1016.38 1016.45 1016.54 1016.64 1016.73 1016.84 1016.93 1017.02 1017.11 1017.20 1017.28 1017.35 1017.40 1017.42 1017.40 1017.32 1017.17
1017.32 1016.83 1016.24 1015.57 1014.86 1014.16 1013.50 1012.93 1012.48 1012.17 1012.01 1012.02 1012.17 1012.44 1012.81 1013.24 1013.69 1014.14 1014.55 1014.91 1015.21 1015.44 1015.62 1015.75 1015.85 1015.93 1016.00 1016.07 1016.14 1016.22 1016.30 1016.39 1016.49 1016.60 1016.71 1016.84 1016.98 1017.12 1017.25 1017.37 1017.44 1017.47 1017.43 1017.31
Thickness
5790 5771 5759 5765 5770 5767 5760 5747 5736 5738 5747 5734 5719 5712 5713 5715 5711 5703 5697 5693 5690 5686 5686 5684 5682 5680 5677 5675 5673 5671 5670 5670 5670 5670 5672 5674 5677 5682 5686 5691 5696 5701 5706 5711
5764 5760 5775 5780 5777 5767 5756 5740 5734 5738 5745 5730 5713 5708 5711 5711 5707 5702 5696 5690 5687 5682 5679 5677 5675 5672 5669 5667 5666 5665 5663 5663 5663 5663 5664 5665 5668 5672 5676 5681 5687 5692 5698 5702
5757 5767 5783 5776 5764 5756 5747 5738 5733 5730 5734 5727 5710 5697 5701 5705 5705 5700 5694 5689 5684 5679 5674 5672 5669 5666 5664 5662 5660 5660 5658 5657 5657 5657 5657 5659 5661 5664 5667 5672 5678 5684 5689 5694
5762 5775 5775 5765 5757 5753 5740 5751 5746 5735 5715 5701 5705 5679 5689 5693 5693 5691 5687 5683 5679 5677 5673 5669 5666 5663 5660 5658 5657 5656 5654 5653 5653 5652 5652 5651 5652 5654 5658 5663 5669 5675 5681 5686
5756 5766 5763 5755 5756 5757 5748 5756 5746 5735 5718 5703 5699 5681 5679 5688 5683 5684 5683 5681 5679 5676 5672 5668 5664 5661 5659 5657 5655 5653 5651 5650 5649 5649 5648 5647 5647 5650 5654 5658 5662 5668 5673 5679
5761 5770 5766 5760 5763 5762 5756 5743 5730 5715 5703 5688 5697 5681 5675 5678 5683 5684 5683 5681 5678 5675 5671 5667 5664 5660 5657 5655 5652 5651 5648 5647 5646 5645 5645 5644 5644 5646 5649 5652 5656 5660 5666 5671
5745 5753 5763 5765 5752 5751 5741 5714 5694 5690 5677 5681 5698 5685 5679 5691 5694 5690 5684 5681 5679 5674 5670 5665 5662 5658 5655 5653 5651 5648 5646 5644 5644 5643 5642 5642 5642 5643 5644 5647 5650 5654 5658 5663
5725 5724 5749 5757 5748 5738 5736 5716 5692 5681 5675 5679 5692 5682 5685 5700 5700 5695 5689 5684 5679 5675 5670 5666 5663 5659 5655 5653 5650 5647 5645 5643 5642 5641 5640 5640 5640 5640 5642 5644 5646 5649 5652 5657
5723 5723 5750 5757 5757 5748 5734 5720 5715 5693 5690 5679 5681 5687 5694 5699 5695 5692 5687 5683 5678 5675 5672 5668 5664 5660 5657 5653 5651 5648 5645 5642 5641 5640 5639 5639 5639 5639 5640 5641 5644 5646 5649 5654
5738 5724 5740 5750 5752 5749 5742 5728 5705 5695 5682 5671 5681 5681 5677 5689 5689 5689 5685 5681 5680 5678 5673 5670 5665 5662 5658 5656 5652 5650 5646 5643 5641 5639 5638 5638 5637 5637 5638 5639 5640 5643 5646 5649
5746 5725 5729 5736 5733 5731 5733 5728 5709 5690 5684 5672 5667 5678 5702 5697 5695 5690 5687 5685 5683 5680 5675 5670 5667 5664 5660 5657 5654 5650 5647 5644 5641 5639 5637 5636 5635 5636 5636 5637 5638 5639 5642 5645
5745 5721 5712 5726 5740 5746 5738 5728 5710 5694 5690 5681 5670 5680 5714 5707 5702 5696 5691 5689 5687 5683 5678 5674 5669 5665 5661 5658 5655 5651 5648 5644 5641 5639 5637 5635 5634 5634 5634 5634 5635 5637 5639 5641
5743 5720 5703 5709 5717 5733 5734 5734 5722 5703 5690 5681 5674 5688 5712 5707 5703 5701 5696 5692 5688 5686 5681 5676 5671 5666 5662 5659 5655 5652 5649 5645 5643 5640 5637 5635 5634 5633 5632 5633 5633 5634 5636 5637
5745 5724 5713 5711 5715 5724 5727 5731 5729 5709 5690 5689 5692 5700 5708 5705 5702 5701 5698 5695 5691 5688 5683 5678 5672 5669 5665 5661 5657 5654 5650 5647 5644 5641 5638 5635 5633 5632 5631 5631 5632 5632 5633 5634
5741 5727 5732 5732 5739 5738 5735 5732 5729 5720 5709 5700 5706 5708 5712 5712 5710 5707 5703 5698 5694 5690 5686 5682 5676 5672 5668 5664 5660 5656 5652 5649 5646 5642 5639 5636 5634 5633 5632 5631 5630 5630 5631 5632
5737 5732 5733 5733 5740 5740 5736 5736 5731 5728 5725 5719 5717 5717 5728 5725 5717 5710 5706 5702 5697 5693 5690 5686 5682 5677 5672 5667 5663 5658 5654 5651 5648 5644 5640 5638 5636 5633 5632 5630 5629 5628 5628 5629
5732 5728 5721 5715 5731 5733 5722 5736 5734 5734 5737 5730 5719 5725 5729 5722 5718 5715 5711 5707 5702 5699 5695 5690 5685 5680 5675 5671 5667 5661 5657 5654 5650 5646 5643 5640 5637 5634 5632 5631 5629 5627 5626 5627
5732 5722 5711 5711 5719 5711 5731 5754 5753 5745 5745 5744 5742 5739 5735 5732 5729 5726 5720 5713 5708 5704 5699 5694 5689 5684 5680 5675 5670 5665 5660 5656 5652 5648 5645 5641 5638 5635 5633 5631 5628 5627 5626 5625
5738 5727 5711 5703 5706 5714 5740 5757 5756 5746 5743 5751 5745 5743 5739 5737 5729 5724 5726 5722 5716 5710 5704 5699 5695 5689 5684 5679 5674 5668 5662 5658 5654 5650 5647 5644 5640 5637 5634 5631 5629 5627 5625 5624
5732 5725 5711 5704 5709 5710 5735 5760 5765 5752 5737 5754 5752 5745 5739 5731 5713 5718 5730 5726 5720 5715 5709 5704 5699 5693 5687 5682 5677 5670 5665 5661 5657 5654 5651 5647 5643 5640 5636 5633 5630 5628 5626 5624
5721 5716 5708 5704 5704 5716 5747 5762 5758 5728 5735 5760 5758 5751 5743 5734 5734 5737 5735 5729 5724 5718 5713 5708 5702 5696 5691 5686 5680 5673 5668 5665 5662 5659 5655 5651 5647 5643 5639 5635 5632 5629 5626 5624
5715 5708 5705 5699 5701 5716 5757 5756 5744 5746 5761 5765 5762 5757 5750 5746 5744 5741 5736 5730 5725 5719 5715 5710 5703 5698 5694 5690 5683 5677 5672 5671 5667 5663 5658 5653 5649 5646 5642 5637 5633 5630 5627 5624
5722 5726 5721 5719 5728 5751 5760 5761 5767 5766 5763 5766 5763 5761 5755 5748 5744 5741 5736 5731 5727 5722 5718 5713 5706 5701 5697 5692 5688 5681 5679 5675 5671 5666 5661 5656 5652 5648 5644 5639 5635 5631 5628 5625
5735 5740 5733 5733 5743 5758 5762 5764 5769 5769 5768 5769 5768 5764 5757 5751 5746 5741 5737 5732 5727 5724 5719 5714 5708 5703 5698 5695 5691 5688 5684 5680 5674 5669 5664 5659 5655 5650 5645 5641 5637 5633 5629 5626
5736 5739 5734 5735 5745 5754 5762 5763 5767 5770 5770 5769 5767 5764 5759 5753 5747 5742 5737 5733 5729 5725 5721 5716 5710 5706 5702 5699 5695 5692 5688 5683 5677 5671 5667 5662 5658 5653 5648 5644 5639 5636 5632 5630
5721 5723 5724 5727 5742 5743 5752 5765 5768 5765 5765 5765 5763 5760 5758 5754 5748 5744 5739 5735 5731 5726 5722 5717 5712 5709 5706 5702 5698 5695 5691 5686 5680 5674 5669 5664 5660 5655 5651 5646 5642 5640 5637 5635